Location: Limoges
(45.8354°N, 1.2645°E)
Time: 18:15:31
(UTC+02:00)

Courier 1B Rocket - Pass Details

Date: 26 February 2024
Orbit: 920 x 1201 km, 28.2° (Epoch: 09 September)

Event Time Altitude Azimuth Distance (km) Brightness Sun altitude
Rises 04:33:12 0° 231° (SW) 3,574 - -32.8°
Reaches altitude 10° 04:37:04 10° 208° (SSW) 2,609 - -32.2°
Maximum altitude 04:40:20 15° 176° (S) 2,280 - -31.6°
Exits shadow 04:42:10 13° 157° (SSE) 2,388 7.0 -31.3°
Drops below altitude 10° 04:43:35 10° 144° (SE) 2,605 7.4 -31.1°
Sets 04:47:27 0° 121° (ESE) 3,567 8.4 -30.5°
